Date String (YYYY-MM-DD hh:mm:ss) UTC,Instrument flags,Ambient pressure (hPa),Sample flow (lpm),Bypass flow (lpm),Sample temperature (°C),Ambient temperature (°C),ASC tube jacket temperature (°C),LED temperature (°C),Box temperature (°C),Sample RH (%),Span deviation,Mass concentration (μg/m³),Mass concentration (μg/m³),Mass concentration (μg/m³)
DateTimeUTC,F1_M11,P_M11,Q1_M11,Q2_M11,T1_M11,T2_M11,T3_M11,T4_M11,T5_M11,U1_M11,ZSPAN_M11,X0_M11,X2_M11,X1_M11
2021-10-22 21:00:00,,0823.8,4.99,0.00,30.2,28.0,00.0,39.0,31.8,07.6,0000.0,0007.61,0002.82,0001.59
2021-10-22 21:01:00,,0823.8,5.00,0.00,30.0,26.1,00.0,39.0,31.4,07.6,0000.0,0007.63,0002.73,0001.59
2021-10-22 21:02:00,,0823.8,5.00,0.00,29.9,25.9,00.0,39.0,31.3,07.6,0000.0,0007.76,0002.71,0001.59
2021-10-22 21:03:00,,0823.8,5.01,0.00,29.8,26.3,00.0,39.0,31.2,07.6,0000.0,0008.53,0002.67,0001.60
2021-10-22 21:04:00,,0823.8,5.00,0.00,29.7,26.8,00.0,38.9,31.2,07.7,0000.0,0008.79,0002.60,0001.59
2021-10-22 21:05:00,,0823.8,4.99,0.00,29.7,27.2,00.0,38.9,31.3,07.8,0000.0,0009.52,0002.59,0001.58
2021-10-22 21:06:00,,0823.7,5.01,0.00,29.7,27.6,00.0,38.8,31.4,07.8,0000.0,0009.66,0002.61,0001.59
2021-10-22 21:07:00,,0823.7,4.99,0.00,29.7,27.9,00.0,38.8,31.5,07.8,0000.0,0009.54,0002.55,0001.59
2021-10-22 21:08:00,,0823.7,4.99,0.00,29.8,28.2,00.0,38.8,31.5,07.8,0000.0,0010.09,0002.53,0001.61
2021-10-22 21:09:00,,0823.7,5.00,0.00,29.8,28.5,00.0,38.8,31.6,07.8,0000.0,0011.34,0002.59,0001.60
2021-10-22 21:10:00,,0823.7,5.01,0.00,29.8,28.6,00.0,38.8,31.7,07.8,0000.0,0011.89,0002.61,0001.58
2021-10-22 21:11:00,,0823.7,5.00,0.00,29.9,28.8,00.0,38.8,31.7,07.7,0000.0,0011.75,0002.58,0001.57
2021-10-22 21:12:00,,0823.7,4.99,0.00,29.9,29.0,00.0,38.9,31.8,07.8,0000.0,0011.50,0002.55,0001.56
2021-10-22 21:13:00,,0823.7,5.00,0.00,30.0,29.1,00.0,38.9,31.8,07.8,0000.0,0011.28,0002.53,0001.56
2021-10-22 21:14:00,,0823.7,5.01,0.00,30.0,29.2,00.0,38.9,31.9,07.9,0000.0,0010.61,0002.52,0001.54
2021-10-22 21:15:00,,0823.7,4.98,0.00,30.0,29.3,00.0,38.9,31.9,07.7,0000.0,0009.93,0002.51,0001.55
2021-10-22 21:16:00,,0823.7,5.01,0.00,30.1,29.4,00.0,39.0,32.0,07.8,0000.0,0009.46,0002.58,0001.55
2021-10-22 21:17:00,,0823.7,5.01,0.00,30.1,29.2,00.0,39.0,32.0,07.7,0000.0,0009.31,0002.59,0001.56
2021-10-22 21:18:00,,0823.7,5.00,0.00,30.1,27.3,00.0,39.0,31.7,07.8,0000.0,0009.26,0002.66,0001.55
2021-10-22 21:19:00,,0823.7,5.00,0.00,30.0,26.0,00.0,39.0,31.4,07.9,0000.0,0008.63,0002.63,0001.54
2021-10-22 21:20:00,,0823.7,5.00,0.00,29.9,26.2,00.0,39.0,31.4,08.0,0000.0,0007.95,0002.65,0001.55
2021-10-22 21:21:00,,0823.7,4.99,0.00,29.8,26.7,00.0,38.9,31.3,07.9,0000.0,0007.95,0002.68,0001.57
2021-10-22 21:22:00,,0823.7,5.00,0.00,29.8,27.1,00.0,38.9,31.4,07.9,0000.0,0009.22,0002.78,0001.59
2021-10-22 21:23:00,,0823.6,4.99,0.00,29.8,27.6,00.0,38.9,31.4,07.9,0000.0,0010.01,0002.93,0001.59
2021-10-22 21:24:00,,0823.7,5.00,0.00,29.8,27.9,00.0,38.8,31.5,08.0,0000.0,0011.49,0003.13,0001.61
2021-10-22 21:25:00,,0823.7,5.00,0.00,29.8,28.2,00.0,38.8,31.6,07.8,0000.0,0012.31,0003.19,0001.63
2021-10-22 21:26:00,,0823.7,4.99,0.00,29.8,28.4,00.0,38.8,31.6,07.8,0000.0,0012.54,0003.19,0001.64
2021-10-22 21:27:00,,0823.6,5.01,0.00,29.9,28.6,00.0,38.8,31.7,07.7,0000.0,0012.99,0003.17,0001.63
2021-10-22 21:28:00,,0823.7,5.00,0.00,29.9,28.7,00.0,38.8,31.7,07.8,0000.0,0013.15,0003.16,0001.63
2021-10-22 21:29:00,,0823.7,4.99,0.00,29.9,28.8,00.0,38.9,31.7,07.8,0000.0,0013.07,0003.14,0001.63
2021-10-22 21:30:00,,0823.7,5.01,0.00,30.0,29.0,00.0,38.9,31.8,07.8,0000.0,0013.31,0003.16,0001.63
2021-10-22 21:31:00,,0823.6,5.00,0.00,30.0,29.1,00.0,38.9,31.9,07.8,0000.0,0013.43,0003.13,0001.63
2021-10-22 21:32:00,,0823.7,4.99,0.00,30.0,29.1,00.0,38.9,31.9,07.8,0000.0,0013.86,0003.12,0001.63
2021-10-22 21:33:00,,0823.7,5.00,0.00,30.1,29.2,00.0,39.0,32.0,07.7,0000.0,0013.07,0003.11,0001.62
2021-10-22 21:34:00,,0823.7,4.99,0.00,30.1,29.0,00.0,39.0,31.9,07.8,0000.0,0012.28,0002.99,0001.61
2021-10-22 21:35:00,,0823.7,5.01,0.00,30.1,27.2,00.0,39.0,31.6,07.8,0000.0,0010.63,0002.78,0001.61
2021-10-22 21:36:00,,0823.6,4.99,0.00,29.9,25.6,00.0,39.0,31.2,07.9,0000.0,0010.26,0002.78,0001.61
2021-10-22 21:37:00,,0823.6,5.00,0.00,29.8,25.8,00.0,38.9,31.1,07.8,0000.0,0010.36,0002.84,0001.60
2021-10-22 21:38:00,,0823.7,5.01,0.00,29.7,26.3,00.0,38.9,31.1,07.9,0000.0,0010.51,0002.87,0001.61
2021-10-22 21:39:00,,0823.7,4.99,0.00,29.6,26.8,00.0,38.8,31.2,07.9,0000.0,0010.39,0002.85,0001.61
2021-10-22 21:40:00,,0823.7,5.00,0.00,29.6,27.1,00.0,38.8,31.3,07.8,0000.0,0011.30,0002.80,0001.60
2021-10-22 21:41:00,,0823.7,5.01,0.00,29.6,27.5,00.0,38.7,31.3,07.8,0000.0,0010.87,0002.77,0001.61
2021-10-22 21:42:00,,0823.7,5.00,0.00,29.6,27.7,00.0,38.7,31.4,07.8,0000.0,0010.28,0002.79,0001.61
2021-10-22 21:43:00,,0823.7,5.01,0.00,29.7,28.0,00.0,38.7,31.4,07.8,0000.0,0009.54,0002.77,0001.60
2021-10-22 21:44:00,,0823.6,4.99,0.00,29.7,28.3,00.0,38.7,31.4,07.9,0000.0,0009.83,0002.82,0001.60
2021-10-22 21:45:00,,0823.7,5.01,0.00,29.7,28.4,00.0,38.7,31.5,08.1,0000.0,0010.89,0002.85,0001.61
2021-10-22 21:46:00,,0823.7,5.00,0.00,29.8,28.6,00.0,38.7,31.6,08.0,0000.0,0010.94,0002.85,0001.61
2021-10-22 21:47:00,,0823.6,5.00,0.00,29.8,28.7,00.0,38.8,31.7,08.0,0000.0,0011.05,0002.81,0001.60
2021-10-22 21:48:00,,0823.7,5.00,0.00,29.8,28.8,00.0,38.8,31.7,08.0,0000.0,0011.09,0002.74,0001.58
2021-10-22 21:49:00,,0823.7,5.00,0.00,29.9,28.9,00.0,38.8,31.7,08.0,0000.0,0011.93,0002.77,0001.59
2021-10-22 21:50:00,,0823.7,5.00,0.00,29.9,29.0,00.0,38.8,31.8,08.1,0000.0,0012.10,0002.74,0001.59
2021-10-22 21:51:00,,0823.8,4.99,0.00,30.0,29.1,00.0,38.8,31.8,08.0,0000.0,0011.89,0002.79,0001.60
2021-10-22 21:52:00,,0823.7,5.00,0.00,30.0,29.1,00.0,38.9,31.9,08.0,0000.0,0012.05,0002.82,0001.59
2021-10-22 21:53:00,,0823.7,5.01,0.00,30.0,29.2,00.0,38.9,31.9,07.9,0000.0,0011.73,0002.76,0001.59
2021-10-22 21:54:00,,0823.6,4.99,0.00,30.1,29.2,00.0,38.9,32.0,08.0,0000.0,0012.53,0002.77,0001.60
2021-10-22 21:55:00,,0823.7,5.00,0.00,30.1,29.2,00.0,38.9,32.0,08.0,0000.0,0012.06,0002.69,0001.60
2021-10-22 21:56:00,,0823.7,5.00,0.00,30.1,28.0,00.0,39.0,31.8,08.0,0000.0,0012.83,0002.69,0001.60
2021-10-22 21:57:00,,0823.7,5.01,0.00,30.0,26.6,00.0,39.0,31.5,07.9,0000.0,0014.40,0002.82,0001.60
2021-10-22 21:58:00,,0823.7,5.00,0.00,29.9,26.8,00.0,39.0,31.4,08.1,0000.0,0014.22,0002.94,0001.62
2021-10-22 21:59:00,,0823.7,5.00,0.00,29.8,27.1,00.0,38.9,31.4,08.1,0000.0,0015.08,0003.03,0001.64
